User: anonymous   Login
Location: Lugrin
(46.4033°N, 6.6674°E)
Time: 23:30:25
(UTC+00:00)
Language:

Tsikada Rocket - Orbit

View from above orbital plane
View from above orbital plane
View from above satellite
View from above satellite

Ground track
Ground track

The orbit data is extracted from the following two-line orbital elements,

1 23466U 95002D   20332.46802963  .00000031  00000-0  17370-4 0  9991
2 23466  82.9278  51.4251 0033329 292.1469  78.2181 13.74430496296274
Epoch (UTC): 27 November 2020 11:13:57
Eccentricity: 0.0033329
inclination: 82.9278°
perigee height: 959 km
apogee height: 1008 km
right ascension of ascending node: 51.4251°
argument of perigee: 292.1469°
revolutions per day: 13.74430496
mean anomaly at epoch: 78.2181°
orbit number at epoch: 29627

The dashed part of the orbit path shows where the satellite is in the earth's shadow,  

DLR